RYR2FL LICC-LIPE

Flight info

Callsign RYR2FL
Flight time N/A
Altitude 36000
Route BUDIN DCT DIRED DCT DELER DCT ISKIA DCT PEMAR DCT GITOD DCT GAVRA DCT BAGNO DCT PELEG
Aircraft B738/M-SDE2E3FGHIRWXY/LB1

Departure

Time 2026-05-06 12:16
Airport Catania-Fontanarossa Airport (LICC)

Arrival

Time N/A
Airport Bologna Guglielmo Marconi Airport (LIPE)
Time Latitude Longitude Altitude Speed Heading
2026-05-06 11:59 37.46930 15.06575 31 ft 0 kts 21°
2026-05-06 12:09 37.46923 15.06572 31 ft 2 kts 21°
2026-05-06 12:09 37.46907 15.06564 30 ft 2 kts 21°
2026-05-06 12:09 37.46890 15.06555 30 ft 2 kts 21°
2026-05-06 12:10 37.46876 15.06549 30 ft 2 kts 21°
2026-05-06 12:10 37.46861 15.06547 29 ft 2 kts 344°
2026-05-06 12:10 37.46845 15.06559 29 ft 2 kts 309°
2026-05-06 12:10 37.46838 15.06580 29 ft 2 kts 274°
2026-05-06 12:11 37.46838 15.06590 29 ft 1 kts 260°
2026-05-06 12:11 37.46839 15.06594 29 ft 0 kts 263°
2026-05-06 12:12 37.46838 15.06591 29 ft 1 kts 263°
2026-05-06 12:12 37.46832 15.06519 29 ft 14 kts 264°
2026-05-06 12:13 37.46817 15.06352 31 ft 18 kts 264°
2026-05-06 12:13 37.46805 15.06186 35 ft 15 kts 264°
2026-05-06 12:13 37.46791 15.06016 38 ft 16 kts 263°
2026-05-06 12:13 37.46775 15.05846 42 ft 18 kts 263°
2026-05-06 12:14 37.46753 15.05612 50 ft 20 kts 267°
2026-05-06 12:14 37.46740 15.05403 53 ft 19 kts 262°
2026-05-06 12:14 37.46677 15.05264 53 ft 14 kts 219°
2026-05-06 12:14 37.46591 15.05186 55 ft 8 kts 183°
2026-05-06 12:15 37.46559 15.05245 54 ft 7 kts 85°
2026-05-06 12:15 37.46564 15.05294 53 ft 4 kts 83°
2026-05-06 12:15 37.46574 15.05434 50 ft 46 kts 84°
2026-05-06 12:15 37.46638 15.06186 32 ft 127 kts 84°
2026-05-06 12:16 37.46740 15.07512 269 ft 169 kts 84°
2026-05-06 12:16 37.46890 15.08848 1010 ft 174 kts 80°
2026-05-06 12:16 37.47155 15.10442 1942 ft 175 kts 79°
2026-05-06 12:16 37.47400 15.11894 2655 ft 175 kts 79°
2026-05-06 12:17 37.47653 15.13445 3187 ft 191 kts 78°
2026-05-06 12:17 37.47928 15.15113 3818 ft 205 kts 78°
2026-05-06 12:17 37.48217 15.16862 4852 ft 200 kts 76°
2026-05-06 12:17 37.48518 15.18545 5532 ft 211 kts 76°
2026-05-06 12:18 37.48815 15.20309 6046 ft 229 kts 76°
2026-05-06 12:18 37.49165 15.22365 6848 ft 237 kts 76°
2026-05-06 12:18 37.49518 15.24384 7633 ft 244 kts 74°
2026-05-06 12:18 37.49915 15.26489 8256 ft 258 kts 72°
2026-05-06 12:19 37.50526 15.28575 9020 ft 260 kts 57°
2026-05-06 12:19 37.51568 15.30316 9944 ft 256 kts 40°
2026-05-06 12:19 37.52976 15.31602 10711 ft 257 kts 28°
2026-05-06 12:19 37.54382 15.32683 11357 ft 264 kts 28°